TimeEST,TemperatureF,Dew PointF,Humidity,Sea Level PressureIn,VisibilityMPH,Wind Direction,Wind SpeedMPH,Gust SpeedMPH,PrecipitationIn,Events,Conditions,WindDirDegrees,DateUTC
12:15 AM,29.3,22.3,75,30.15,10.0,Calm,Calm,-,N/A,,Clear,0,2013-12-24 05:15:00
12:35 AM,28.6,22.1,77,30.15,10.0,Calm,Calm,-,N/A,,Clear,0,2013-12-24 05:35:00
12:55 AM,27.7,22.8,82,30.14,10.0,Calm,Calm,-,N/A,,Clear,0,2013-12-24 05:55:00
1:15 AM,28.2,21.7,77,30.14,10.0,Calm,Calm,-,N/A,,Clear,0,2013-12-24 06:15:00
1:35 AM,27.5,22.1,80,30.14,10.0,Calm,Calm,-,N/A,,Clear,0,2013-12-24 06:35:00
1:55 AM,27.3,21.0,77,30.14,10.0,NNW,3.5,-,N/A,,Clear,330,2013-12-24 06:55:00
2:15 AM,26.6,21.0,79,30.14,10.0,Calm,Calm,-,N/A,,Clear,0,2013-12-24 07:15:00
2:35 AM,26.6,20.8,79,30.14,10.0,Calm,Calm,-,N/A,,Clear,0,2013-12-24 07:35:00
2:55 AM,26.4,20.3,78,30.14,10.0,Calm,Calm,-,N/A,,Clear,0,2013-12-24 07:55:00
3:15 AM,26.4,20.3,78,30.14,10.0,NW,4.6,-,N/A,,Clear,320,2013-12-24 08:15:00
3:35 AM,26.2,20.8,80,30.14,10.0,NW,4.6,-,N/A,,Clear,320,2013-12-24 08:35:00
3:55 AM,26.1,21.0,81,30.14,10.0,Calm,Calm,-,N/A,,Clear,0,2013-12-24 08:55:00
4:15 AM,26.4,21.2,81,30.13,10.0,Calm,Calm,-,N/A,,Clear,0,2013-12-24 09:15:00
4:35 AM,26.1,21.2,82,30.13,10.0,Calm,Calm,-,N/A,,Scattered Clouds,0,2013-12-24 09:35:00
4:55 AM,26.1,20.1,78,30.12,10.0,Calm,Calm,-,N/A,,Scattered Clouds,0,2013-12-24 09:55:00
5:15 AM,25.7,19.9,79,30.12,10.0,NW,5.8,-,N/A,,Scattered Clouds,320,2013-12-24 10:15:00
5:35 AM,25.7,19.4,77,30.12,10.0,WNW,6.9,-,N/A,,Clear,300,2013-12-24 10:35:00
5:55 AM,26.2,19.4,75,30.12,10.0,WNW,12.7,21.9,N/A,,Clear,290,2013-12-24 10:55:00
6:15 AM,26.2,19.2,75,30.13,10.0,NW,5.8,17.3,N/A,,Scattered Clouds,320,2013-12-24 11:15:00
6:35 AM,25.7,19.2,76,30.14,10.0,West,5.8,20.7,N/A,,Scattered Clouds,280,2013-12-24 11:35:00
6:55 AM,25.7,19.2,76,30.15,10.0,NW,4.6,-,N/A,,Overcast,310,2013-12-24 11:55:00
7:15 AM,25.5,19.2,77,30.14,10.0,West,5.8,-,N/A,,Overcast,280,2013-12-24 12:15:00
7:35 AM,25.5,18.9,76,30.15,10.0,WNW,6.9,10.4,N/A,,Mostly Cloudy,300,2013-12-24 12:35:00
7:55 AM,25.7,18.5,74,30.15,10.0,West,6.9,-,N/A,,Mostly Cloudy,280,2013-12-24 12:55:00
8:15 AM,26.1,18.7,74,30.16,10.0,WNW,5.8,-,N/A,,Mostly Cloudy,300,2013-12-24 13:15:00
8:35 AM,26.2,18.3,72,30.17,10.0,West,16.1,27.6,N/A,,Mostly Cloudy,280,2013-12-24 13:35:00
8:55 AM,27.5,18.9,70,30.18,10.0,West,17.3,24.2,N/A,,Mostly Cloudy,270,2013-12-24 13:55:00
9:15 AM,27.3,19.4,72,30.18,7.0,WNW,11.5,25.3,N/A,,Overcast,290,2013-12-24 14:15:00
9:35 AM,27.5,19.4,72,30.19,7.0,WNW,10.4,26.5,N/A,,Overcast,300,2013-12-24 14:35:00
9:55 AM,28.2,18.5,67,30.18,10.0,WNW,23.0,31.1,N/A,,Mostly Cloudy,290,2013-12-24 14:55:00
10:15 AM,28.8,17.8,64,30.20,7.0,WNW,23.0,32.2,N/A,,Mostly Cloudy,300,2013-12-24 15:15:00
10:35 AM,28.4,17.2,63,30.22,7.0,West,17.3,25.3,N/A,,Overcast,280,2013-12-24 15:35:00
10:55 AM,28.2,16.7,62,30.21,10.0,West,12.7,23.0,N/A,,Overcast,270,2013-12-24 15:55:00
11:15 AM,27.9,16.0,61,30.21,10.0,WNW,9.2,17.3,N/A,,Overcast,290,2013-12-24 16:15:00
11:35 AM,28.2,15.8,60,30.20,10.0,Calm,Calm,-,N/A,,Overcast,0,2013-12-24 16:35:00
11:55 AM,27.7,14.2,57,30.19,10.0,WNW,15.0,23.0,N/A,,Mostly Cloudy,300,2013-12-24 16:55:00
12:15 PM,28.0,16.0,61,30.20,7.0,NW,10.4,24.2,N/A,Snow,Light Snow,310,2013-12-24 17:15:00
12:35 PM,26.2,19.9,77,30.18,1.8,NW,11.5,16.1,N/A,Snow,Light Snow,320,2013-12-24 17:35:00
12:55 PM,27.3,18.7,70,30.18,10.0,NW,10.4,19.6,N/A,,Overcast,320,2013-12-24 17:55:00
1:20 PM,26.1,15.6,65,30.19,10.0,WNW,16.1,29.9,N/A,Snow,Light Snow,300,2013-12-24 18:20:00
1:35 PM,26.2,16.2,66,30.20,10.0,NW,10.4,23.0,N/A,,Overcast,310,2013-12-24 18:35:00
1:55 PM,26.8,15.6,63,30.20,10.0,WNW,10.4,18.4,N/A,,Overcast,290,2013-12-24 18:55:00
2:15 PM,26.2,14.4,61,30.20,10.0,West,13.8,23.0,N/A,,Overcast,280,2013-12-24 19:15:00
2:35 PM,26.1,14.0,60,30.21,10.0,WNW,10.4,24.2,N/A,,Overcast,300,2013-12-24 19:35:00
2:55 PM,25.7,12.7,58,30.22,10.0,West,13.8,20.7,N/A,,Overcast,280,2013-12-24 19:55:00
3:15 PM,26.1,12.9,58,30.21,10.0,West,15.0,21.9,N/A,,Overcast,280,2013-12-24 20:15:00
3:35 PM,25.3,12.2,58,30.22,10.0,NW,9.2,29.9,N/A,,Overcast,310,2013-12-24 20:35:00
3:55 PM,24.3,11.1,57,30.22,10.0,WSW,6.9,26.5,N/A,,Scattered Clouds,250,2013-12-24 20:55:00
4:15 PM,24.3,11.1,57,30.23,10.0,NW,9.2,16.1,N/A,,Scattered Clouds,310,2013-12-24 21:15:00
4:35 PM,23.9,10.2,56,30.23,10.0,NW,10.4,19.6,N/A,,Scattered Clouds,310,2013-12-24 21:35:00
4:55 PM,23.4,10.0,57,30.24,10.0,NW,9.2,16.1,N/A,,Mostly Cloudy,310,2013-12-24 21:55:00
5:15 PM,22.6,9.0,56,30.24,10.0,NW,17.3,26.5,N/A,,Scattered Clouds,320,2013-12-24 22:15:00
5:35 PM,22.1,8.4,56,30.25,10.0,NW,5.8,-,N/A,,Clear,320,2013-12-24 22:35:00
5:55 PM,21.7,7.7,55,30.26,10.0,NW,6.9,16.1,N/A,,Clear,320,2013-12-24 22:55:00
6:15 PM,21.2,7.9,57,30.26,10.0,WSW,3.5,-,N/A,,Clear,250,2013-12-24 23:15:00
6:35 PM,21.0,7.7,56,30.27,10.0,West,4.6,17.3,N/A,,Clear,270,2013-12-24 23:35:00
6:55 PM,20.8,8.2,58,30.27,10.0,WNW,11.5,-,N/A,,Clear,300,2013-12-24 23:55:00
7:15 PM,20.3,8.4,60,30.26,10.0,NW,11.5,23.0,N/A,,Clear,310,2013-12-25 00:15:00
7:35 PM,20.1,7.7,59,30.27,10.0,WNW,5.8,-,N/A,,Clear,300,2013-12-25 00:35:00
7:55 PM,19.9,6.8,57,30.27,10.0,West,3.5,-,N/A,,Clear,270,2013-12-25 00:55:00
8:15 PM,19.9,6.4,56,30.27,10.0,WNW,6.9,20.7,N/A,,Clear,300,2013-12-25 01:15:00
8:35 PM,19.4,5.7,55,30.28,10.0,NW,5.8,17.3,N/A,,Clear,310,2013-12-25 01:35:00
8:55 PM,18.9,5.7,57,30.28,10.0,NW,6.9,-,N/A,,Clear,320,2013-12-25 01:55:00
9:15 PM,18.7,5.0,55,30.28,10.0,NNW,9.2,-,N/A,,Clear,330,2013-12-25 02:15:00
9:35 PM,18.3,5.4,57,30.29,10.0,NNW,5.8,-,N/A,,Clear,340,2013-12-25 02:35:00
9:55 PM,18.1,5.5,58,30.29,10.0,NNW,4.6,-,N/A,,Clear,330,2013-12-25 02:55:00
10:15 PM,18.1,5.0,57,30.29,10.0,NW,4.6,-,N/A,,Clear,320,2013-12-25 03:15:00
10:35 PM,18.0,5.0,57,30.29,10.0,NW,9.2,-,N/A,,Clear,320,2013-12-25 03:35:00
10:55 PM,17.6,5.0,58,30.29,10.0,NNW,3.5,-,N/A,,Clear,330,2013-12-25 03:55:00
11:15 PM,17.2,6.1,62,30.29,10.0,Calm,Calm,-,N/A,,Clear,0,2013-12-25 04:15:00
11:35 PM,16.7,5.7,62,30.29,10.0,Calm,Calm,-,N/A,,Clear,0,2013-12-25 04:35:00
11:55 PM,16.7,6.3,64,30.29,10.0,Calm,Calm,-,N/A,,Clear,0,2013-12-25 04:55:00